星链-1606 (STARLINK-1606 )

导读 | 豆包AI

STARLINK-1606是美国SpaceX公司星链计划中的低轨通信卫星,于2020年8月18日发射。作为星链星座的一员,它运行在约550公里近地轨道,配备相控阵天线与霍尔推进器,支持Ku/Ka频段通信,依托低轨优势实现低时延宽带传输,为全球互联网接入服务提供支撑,助力星链完成全球覆盖的组网目标。

基本信息
目录编号:
46144
目录名称:
STARLINK-1606
国际标识:
2020-057AD
轨道中心:
EARTH
卫星名称:
星链-1606
卫星全名:
星链-1606 (STARLINK-1606 )
卫星状态:
在轨 (已飞行2081 天)
发射日期:
2020-08-18 UTC
国别 :
美国 (US)
星等 :
--
轨道信息
数据来源 国际轨道数据
星历时间: 2026-04-30T09:21:59+0800
7小时前
查看轨道信息
半长轴: 6719.317km
偏心率: 0.0004286
轨道倾角: 53.042°
近地点辐角 154.790°
升交点赤经 2.388°
平近点角 205.333°
近地点: 338.3km
远地点: 344.06km
周期: 91.358分钟
每日圈数: 15.762139
详细信息
固有亮度:
5
最大亮度:
2.5
卫星平台:
Starlink V1.0
覆盖范围:
全球
运营商:
太空探索技术公司
运营商所在国:
美国
制造商(研发单位):
太空探索技术公司
制造商所在国:
美国
使用方式:
暂无
卫星简介
星链(Starlink)计划是由太空探索技术公司(SpaceX)提出的一个巨型低轨卫星互联网星座项目,计划在2019年至2024年间在太空搭建由约1.2万颗卫星组成的“星链”网络,其中1584颗将部署在地球上空550千米处的近地轨道,并从2020年开始工作。该卫星仍在工作。
2D轨道图
3D轨道图
轨道高度分析图
轨道倾角分析图
轨道综合分析图
查看轨道综合分析图